(282886) = 2001 WO24 = 2007 ER175

Discovered at Kitt Peak on 2007-03-14 by Spacewatch.

Orbit

Orbit type: Main Belt

Note: WebGL enabled browser required.

epoch2023-09-13.0
epoch JD2460200.5
perihelion date2022-08-07.35211
perihelion JD2459798.85211
argument of perihelion (°)67.08705
ascending node (°)209.16009
inclination (°)3.87747
eccentricity0.0882259
perihelion distance (AU)2.1659703
Tisserand w.r.t. Jupiter3.5
ΔV w.r.t. Earth (km/sec)9.2
semimajor axis (AU)2.3755559
mean anomaly (°)108.11886
mean daily motion (°/day)0.26918820
aphelion distance (AU)2.585
period (years)3.66
P-vector [x]0.10778986
P-vector [y]-0.93512105
P-vector [z]-0.33753515
Q-vector [x]0.99362754
Q-vector [y]0.09007927
Q-vector [z]0.06774985
absolute magnitude17.41
phase slope0.15
uncertainty0
referenceMPEC 2023-Y63
observations used291
oppositions14
arc length (days)8064
first opposition used2001
last opposition used2023
residual rms (arc-secs)0.70
perturbers coarse indicatorM-v
perturbers precise indicator003Ek
first observation date used2001-11-18.0
last observation date used2023-12-17.0
computer nameMPCLINUX
JD of orbit computation2456760.844697
perihelion JD uncertainty (days)1.7370E-04
argument of perihelion uncertainty (°)7.8998E-05
ascending node uncertainty (°)6.6018E-05
inclination uncertainty (°)6.1282E-06
eccentricity uncertainty 3.8107E-08
perihelion distance uncertainty (AU)9.8176E-08
Minimum Orbit Intersection Distances (in AU)
for orbit epoch: 2460200.5, reference: E2023-Y63
Mercury1.708
Venus1.4423
Earth1.15261
Mars0.6693
Jupiter2.48117
Saturn6.47179
Uranus15.9882
Neptune27.3514

Observations

297 total observations over interval: 2001 11 18.20701 – 2023 12 17.234383
These data are available for download (format description).

Date (UT) J2000 RA J2000 Dec Magn Location Ref
2001 11 18.20701 02 28 31.61 +12 49 22.0 21.4 V 691 – Steward Observatory, Kitt Peak-Spacewatch MPS 44972
2001 11 18.22806 02 28 30.55 +12 49 15.0 21.6 V 691 – Steward Observatory, Kitt Peak-Spacewatch MPS 44972
2001 11 18.24915 02 28 29.41 +12 49 08.2 21.6 V 691 – Steward Observatory, Kitt Peak-Spacewatch MPS 44972
2001 11 20.26952 02 26 48.95 +12 38 20.6 21.5 V 691 – Steward Observatory, Kitt Peak-Spacewatch MPS 44972
2001 11 20.29120 02 26 47.87 +12 38 12.8 21.0 V 691 – Steward Observatory, Kitt Peak-Spacewatch MPS 44972
2001 11 20.31374 02 26 46.69 +12 38 07.4 20.7 V 691 – Steward Observatory, Kitt Peak-Spacewatch MPS 44972
2007 03 14.33950 13 22 07.13 -10 50 08.5 20.6 V 691 – Steward Observatory, Kitt Peak-Spacewatch MPS 204804
2007 03 14.35713 13 22 06.56 -10 50 04.0 20.6 V 691 – Steward Observatory, Kitt Peak-Spacewatch MPS 204804
2007 03 14.37476 13 22 05.96 -10 49 59.6 20.5 V 691 – Steward Observatory, Kitt Peak-Spacewatch MPS 204804
2007 03 18.26989 13 19 51.15 -10 31 25.5 20.2 V 691 – Steward Observatory, Kitt Peak-Spacewatch MPS 204804
2007 03 18.28754 13 19 50.52 -10 31 21.3 20.7 V 691 – Steward Observatory, Kitt Peak-Spacewatch MPS 204804
2007 03 18.30519 13 19 49.83 -10 31 15.7 20.8 V 691 – Steward Observatory, Kitt Peak-Spacewatch MPS 204804
2007 04 16.26829 12 56 00.09 -07 11 10.1 20.6 V 703 – Catalina Sky Survey MPS 211862
2007 04 16.27427 12 55 59.80 -07 11 06.0 19.8 V 703 – Catalina Sky Survey MPS 211862
2007 04 16.28030 12 55 59.34 -07 11 04.8 20.5 V 703 – Catalina Sky Survey MPS 211862
2007 04 16.28632 12 55 59.12 -07 11 01.2 20.0 V 703 – Catalina Sky Survey MPS 211862
2007 04 16.29530 12 55 58.69 -07 10 57.6 20.0 V G96 – Mt. Lemmon Survey MPS 211862
2007 04 16.30148 12 55 58.36 -07 10 54.8 20.0 V G96 – Mt. Lemmon Survey MPS 211862
2007 04 16.30759 12 55 58.04 -07 10 52.0 20.0 V G96 – Mt. Lemmon Survey MPS 211862
2007 04 16.31387 12 55 57.68 -07 10 48.9 20.1 V G96 – Mt. Lemmon Survey MPS 211862
2007 05 09.21012 12 40 57.21 -04 44 02.3 20.6 V G96 – Mt. Lemmon Survey MPS 211862
2007 05 09.21747 12 40 57.03 -04 44 00.3 20.6 V G96 – Mt. Lemmon Survey MPS 211862
2007 05 09.22481 12 40 56.85 -04 43 58.2 20.8 V G96 – Mt. Lemmon Survey MPS 211862
2007 05 09.23219 12 40 56.67 -04 43 56.2 20.9 V G96 – Mt. Lemmon Survey MPS 211862
2008 08 24.35583 00 25 14.51 +06 46 15.1   691 – Steward Observatory, Kitt Peak-Spacewatch MPS 254558
2008 08 24.37339 00 25 14.00 +06 46 11.4   691 – Steward Observatory, Kitt Peak-Spacewatch MPS 254558
2008 08 24.39094 00 25 13.50 +06 46 07.8   691 – Steward Observatory, Kitt Peak-Spacewatch MPS 254558
2008 09 04.31162 00 19 01.72 +05 58 10.1 20.0 V 691 – Steward Observatory, Kitt Peak-Spacewatch MPS 255242
2008 09 04.32919 00 19 00.94 +05 58 04.2 20.4 V 691 – Steward Observatory, Kitt Peak-Spacewatch MPS 255242
2008 09 04.34422 00 19 00.30 +05 57 59.4 20.3 V 691 – Steward Observatory, Kitt Peak-Spacewatch MPS 255242
2008 09 05.31953 00 18 19.33 +05 52 34.6 20.4 V 691 – Steward Observatory, Kitt Peak-Spacewatch MPS 255242
2008 09 05.34402 00 18 18.24 +05 52 26.2 20.3 V 691 – Steward Observatory, Kitt Peak-Spacewatch MPS 255242
2008 09 05.36505 00 18 17.29 +05 52 19.1 20.2 V 691 – Steward Observatory, Kitt Peak-Spacewatch MPS 255242
2008 09 20.32468 00 06 05.79 +04 11 58.3 20.1 V G96 – Mt. Lemmon Survey MPS 256768
2008 09 20.33073 00 06 05.43 +04 11 55.3 20.0 V G96 – Mt. Lemmon Survey MPS 256768
2008 09 20.33691 00 06 05.11 +04 11 52.7 20.2 V G96 – Mt. Lemmon Survey MPS 256768
2008 09 20.34303 00 06 04.75 +04 11 50.0 20.2 V G96 – Mt. Lemmon Survey MPS 256768
2008 09 24.23159 00 02 39.35 +03 42 13.8 19.4   704 – Lincoln Laboratory ETS, New Mexico MPS 264629
2008 09 24.23175 00 02 39.30 +03 42 13.2 19.6   704 – Lincoln Laboratory ETS, New Mexico MPS 264629
2008 09 24.24367 00 02 38.67 +03 42 06.4 20.5   704 – Lincoln Laboratory ETS, New Mexico MPS 264629
2008 09 24.24383 00 02 38.67 +03 42 08.3 19.9   704 – Lincoln Laboratory ETS, New Mexico MPS 264629
2008 09 24.25578 00 02 38.01 +03 42 00.9 20.0   704 – Lincoln Laboratory ETS, New Mexico MPS 264629
2008 09 24.26786 00 02 37.25 +03 41 56.7 19.9   704 – Lincoln Laboratory ETS, New Mexico MPS 264629
2008 09 24.26802 00 02 37.46 +03 41 59.1 20.8   704 – Lincoln Laboratory ETS, New Mexico MPS 264629
2008 09 24.27994 00 02 36.70 +03 41 50.9 20.0   704 – Lincoln Laboratory ETS, New Mexico MPS 264629
2008 09 24.28010 00 02 36.59 +03 41 52.0 20.3   704 – Lincoln Laboratory ETS, New Mexico MPS 264629
2008 09 29.24141 23 58 17.66 +03 03 30.0 20.4   704 – Lincoln Laboratory ETS, New Mexico MPS 258015
2008 09 29.25377 23 58 17.00 +03 03 23.9 20.6   704 – Lincoln Laboratory ETS, New Mexico MPS 258015
2008 09 29.26615 23 58 16.41 +03 03 20.1 20.5   704 – Lincoln Laboratory ETS, New Mexico MPS 258015
2008 09 29.27854 23 58 15.74 +03 03 13.8 20.3   704 – Lincoln Laboratory ETS, New Mexico MPS 258015
2008 11 19.16682 23 42 01.11 -00 42 02.5 21.3 V G96 – Mt. Lemmon Survey MPS 265288
2008 11 19.17258 23 42 01.22 -00 42 02.7 21.9 V G96 – Mt. Lemmon Survey MPS 265288
2008 11 19.17829 23 42 01.33 -00 42 02.7 21.2 V G96 – Mt. Lemmon Survey MPS 265288
2008 11 19.18405 23 42 01.44 -00 42 02.5 21.6 V G96 – Mt. Lemmon Survey MPS 265288
2010 01 12.32338 07 56 18.56 +14 22 43.6 20.8 V G96 – Mt. Lemmon Survey MPS 310246
2010 01 12.33061 07 56 18.13 +14 22 43.8 20.9 V G96 – Mt. Lemmon Survey MPS 310246
2010 01 12.33793 07 56 17.66 +14 22 45.3 20.9 V G96 – Mt. Lemmon Survey MPS 310246
2010 01 12.34523 07 56 17.16 +14 22 46.4 21.1 V G96 – Mt. Lemmon Survey MPS 310246
2010 01 12.35245 07 56 16.69 +14 22 47.4 20.9 V G96 – Mt. Lemmon Survey MPS 310246
2011 06 09.45914 16 42 49.174 -17 03 41.32 19.8 r F51 – Pan-STARRS 1, Haleakala MPS 385357
2011 06 09.47336 16 42 48.303 -17 03 38.41 19.7 r F51 – Pan-STARRS 1, Haleakala MPS 385357
2011 06 27.22806 16 28 12.61 -16 19 21.6 19.7 V G96 – Mt. Lemmon Survey MPS 385797
2011 06 27.23615 16 28 12.32 -16 19 21.0 19.8 V G96 – Mt. Lemmon Survey MPS 385797
2011 06 27.24431 16 28 11.92 -16 19 20.3 19.8 V G96 – Mt. Lemmon Survey MPS 385797
2011 06 27.25240 16 28 11.64 -16 19 19.4 19.8 V G96 – Mt. Lemmon Survey MPS 385797
2012 10 08.37760 03 18 13.36 +17 20 01.5 21.0 V 691 – Steward Observatory, Kitt Peak-Spacewatch MPS 434897
2012 10 08.39526 03 18 12.76 +17 19 57.2 21.0 V 691 – Steward Observatory, Kitt Peak-Spacewatch MPS 434897
2012 10 08.41293 03 18 12.17 +17 19 53.0 20.8 V 691 – Steward Observatory, Kitt Peak-Spacewatch MPS 434897
2012 10 20.32041 03 10 01.90 +16 25 40.3 20.8 V 691 – Steward Observatory, Kitt Peak-Spacewatch MPS 439364
2012 10 20.33808 03 10 00.98 +16 25 35.2 20.6 V 691 – Steward Observatory, Kitt Peak-Spacewatch MPS 439364
2012 10 20.35576 03 10 00.05 +16 25 30.0 20.6 V 691 – Steward Observatory, Kitt Peak-Spacewatch MPS 439364
2012 10 27.44597 03 03 43.52 +15 46 49.7 20.5 V G96 – Mt. Lemmon Survey MPS 441485
2012 10 27.45097 03 03 43.23 +15 46 47.9 20.3 V G96 – Mt. Lemmon Survey MPS 441485
2012 10 27.45591 03 03 42.94 +15 46 46.4 20.9 V G96 – Mt. Lemmon Survey MPS 441485
2012 10 27.46087 03 03 42.66 +15 46 44.3 21.0 V G96 – Mt. Lemmon Survey MPS 441485
2012 11 04.39752 02 56 00.38 +15 00 12.9 20.2 V G96 – Mt. Lemmon Survey MPS 441485
2012 11 04.40461 02 55 59.95 +15 00 10.0 20.7 V G96 – Mt. Lemmon Survey MPS 441485
2012 11 04.41165 02 55 59.52 +15 00 07.2 20.3 V G96 – Mt. Lemmon Survey MPS 441485
2012 11 07.28067 02 53 08.55 +14 42 59.9 20.0 V G96 – Mt. Lemmon Survey MPS 441485
2012 11 07.28627 02 53 08.23 +14 42 57.8 20.4 V G96 – Mt. Lemmon Survey MPS 441485
2012 11 07.29178 02 53 07.90 +14 42 55.2 19.7 V G96 – Mt. Lemmon Survey MPS 441485
2012 11 07.29733 02 53 07.54 +14 42 54.2 20.4 V G96 – Mt. Lemmon Survey MPS 441485
2012 12 07.23445 02 29 10.790 +12 16 58.50 21.0 w F51 – Pan-STARRS 1, Haleakala MPS 447615
2012 12 07.24949 02 29 10.336 +12 16 55.90 21.1 w F51 – Pan-STARRS 1, Haleakala MPS 447615
2012 12 07.26444 02 29 09.877 +12 16 53.35 21.2 w F51 – Pan-STARRS 1, Haleakala MPS 447615
2012 12 07.27952 02 29 09.428 +12 16 50.66 21.2 w F51 – Pan-STARRS 1, Haleakala MPS 447615
2014 01 26.58147 10 46 01.503 +02 14 28.33 20.7 r F51 – Pan-STARRS 1, Haleakala MPS 500068
